Tracking 19638 objects as of 20-Apr-2019
HD Live streaming from Space Station
objects crossing your sky now

FLOCK 2K 28

Track FLOCK 2K 28 now!
10-day predictions
FLOCK 2K 28 is classified as:


NORAD ID: 42880
Int'l Code: 2017-042BH
Perigee: 456.5 km
Apogee: 476.0 km
Inclination: 96.9 °
Period: 93.8 minutes
Semi major axis: 6837 km
RCS: Unknown
Launch date: July 14, 2017
Source: United States (US)
Launch site: TYURATAM MISSILE AND SPACE COMPLEX (TTMTR)
aabbcc
Your satellite tracking list
Your tracking list is empty




NASA's NSSDC Master Catalog

Two Line Element Set (TLE):
1 42880U 17042BH  19109.90088376 +.00001720 +00000-0 +51658-4 0  9996
2 42880 096.9480 354.1043 0014272 077.5316 282.7525 15.35608145098652
Source of the keplerian elements: AFSPC